Waarnemingen

Advertentie
Mijn weer
Vitoria, Spanje (8080): temperatuur & dauwpunt: 16.06.2018 09:00:00 - 22.06.2018 09:00:00 (CEST)Vitoria, Spanje (8080): windsnelheid: 16.06.2018 09:00:00 - 22.06.2018 09:00:00 (CEST)Vitoria, Spanje (8080): windrichting: 16.06.2018 09:00:00 - 22.06.2018 09:00:00 (CEST)Vitoria, Spanje (8080): luchtdruk: 16.06.2018 09:00:00 - 22.06.2018 09:00:00 (CEST)Vitoria, Spanje (8080): zicht: 16.06.2018 09:00:00 - 22.06.2018 09:00:00 (CEST)
Datum & Tijd tt [°C] td [°C] ff [km/u] ff [kn] dd ppp [hPa] vv [km]
22.06.2018 09:00:00 18,5 16,9 0 0 N 1021,7 7
22.06.2018 08:00:00 18,0 16,8 0 0 N 1021,6 7
22.06.2018 07:00:00 17,9 16,8 0 0 N 1021,4 -
22.06.2018 06:00:00 17,8 16,3 4 2 WNW 1021,3 -
22.06.2018 05:00:00 17,9 16,6 0 0 N 1021,5 10
22.06.2018 04:00:00 17,8 16,8 4 2 ONO 1021,6 -
22.06.2018 03:00:00 17,9 16,8 0 0 N 1021,8 -
22.06.2018 02:00:00 18,1 16,9 5 3 NO 1022,0 10
22.06.2018 01:00:00 18,2 16,9 9 5 NO 1022,4 -
22.06.2018 00:00:00 18,2 17,0 8 4 NO 1022,5 -
21.06.2018 23:00:00 18,5 16,8 16 9 N 1022,2 10
21.06.2018 22:00:00 19,0 16,6 15 8 N 1021,1 -
21.06.2018 21:00:00 20,2 16,8 18 10 NNO 1020,7 -
21.06.2018 20:00:00 21,2 17,6 16 9 N 1020,2 10
21.06.2018 19:00:00 21,4 17,6 22 12 N 1019,6 -
21.06.2018 18:00:00 22,2 17,8 21 11 N 1019,4 -
21.06.2018 17:00:00 23,8 18,9 28 15 NNO 1018,8 10
21.06.2018 16:00:00 24,2 20,0 26 14 NNO 1018,5 -
21.06.2018 15:00:00 24,7 19,3 18 10 NNO 1018,5 10
21.06.2018 14:00:00 24,1 19,4 21 11 NO 1018,8 12
21.06.2018 13:00:00 - - - - - - -
21.06.2018 12:00:00 24,0 18,3 8 4 NNO 1018,6 -
21.06.2018 11:00:00 21,3 17,9 0 0 N 1019,4 10
21.06.2018 10:00:00 19,7 17,4 8 4 NO 1019,7 -
21.06.2018 09:00:00 18,7 17,2 9 5 NO 1020,1 8
21.06.2018 08:00:00 17,3 16,8 11 6 NO 1020,3 7
21.06.2018 07:00:00 18,1 17,6 5 3 ONO 1020,1 -
21.06.2018 06:00:00 18,1 17,6 0 0 N 1019,6 -
21.06.2018 05:00:00 18,1 17,6 0 0 N 1019,7 4,0
21.06.2018 04:00:00 18,4 17,6 8 4 NNO 1019,8 -
21.06.2018 03:00:00 18,7 17,7 8 4 NO 1020,0 -
21.06.2018 02:00:00 19,0 18,0 11 6 NNO 1019,9 8
21.06.2018 01:00:00 19,2 18,2 11 6 NNO 1019,9 -
21.06.2018 00:00:00 19,7 18,4 13 7 NNO 1019,1 -
20.06.2018 23:00:00 21,2 18,8 0 0 N 1018,3 15
20.06.2018 22:00:00 22,7 19,3 5 3 NW 1017,0 -
20.06.2018 21:00:00 24,2 20,1 5 3 WNW 1016,1 -
20.06.2018 20:00:00 25,8 20,5 15 8 NNO 1015,6 20
20.06.2018 19:00:00 27,0 21,1 22 12 N 1015,0 -
20.06.2018 18:00:00 29,4 21,3 21 11 NNO 1014,4 -
20.06.2018 17:00:00 31,0 17,8 8 4 O 1014,2 30
20.06.2018 16:00:00 31,2 19,3 2 1 ZW 1014,5 -
20.06.2018 15:00:00 30,2 19,2 5 3 NNW 1014,9 25
20.06.2018 14:00:00 28,8 19,4 2 1 W 1015,8 25
20.06.2018 13:00:00 27,0 18,0 4 2 NNO 1016,6 -
20.06.2018 12:00:00 25,1 17,3 0 0 N 1017,3 -
20.06.2018 11:00:00 23,3 16,9 4 2 ZO 1017,7 20
20.06.2018 10:00:00 20,7 16,9 11 6 ZW 1018,5 -
20.06.2018 09:00:00 17,9 16,1 8 4 ZW 1018,9 10
20.06.2018 08:00:00 15,8 15,5 9 5 WZW 1019,3 1,0
20.06.2018 07:00:00 16,1 15,6 8 4 WZW 1019,1 -
20.06.2018 06:00:00 16,6 15,6 5 3 W 1018,9 -
20.06.2018 05:00:00 16,7 15,7 0 0 N 1018,9 8
20.06.2018 04:00:00 16,7 15,7 0 0 N 1019,0 -
20.06.2018 03:00:00 16,9 15,9 4 2 O 1019,3 -
20.06.2018 02:00:00 16,7 16,1 5 3 ONO 1019,7 9
20.06.2018 01:00:00 16,6 16,0 2 1 ONO 1020,3 -
20.06.2018 00:00:00 16,4 15,8 8 4 NNO 1020,6 -
19.06.2018 23:00:00 16,5 15,4 8 4 N 1020,5 12
19.06.2018 22:00:00 - - - - - - -
19.06.2018 21:00:00 18,3 15,9 13 7 N 1019,8 -
19.06.2018 20:00:00 19,6 16,1 18 10 N 1019,6 20
19.06.2018 19:00:00 21,1 16,8 21 11 NNO 1019,1 -
19.06.2018 18:00:00 21,9 17,3 21 11 NNO 1019,3 -
19.06.2018 17:00:00 22,4 16,5 15 8 NO 1019,7 25
19.06.2018 16:00:00 21,6 16,7 15 8 NO 1020,4 -
19.06.2018 15:00:00 21,0 15,9 13 7 NO 1021,3 20
19.06.2018 14:00:00 19,8 15,0 9 5 NO 1022,1 20
19.06.2018 13:00:00 18,7 14,1 13 7 NO 1022,8 -
19.06.2018 12:00:00 17,5 14,3 13 7 ONO 1023,4 -
19.06.2018 11:00:00 16,9 14,4 11 6 NNO 1023,9 20
19.06.2018 10:00:00 15,8 13,5 11 6 NNO 1024,5 -
19.06.2018 09:00:00 14,6 12,8 11 6 NNO 1025,1 20
19.06.2018 08:00:00 13,9 12,5 9 5 NNO 1025,3 15
19.06.2018 07:00:00 13,6 12,8 5 3 NNO 1025,3 -
19.06.2018 06:00:00 13,5 13,1 11 6 NNO 1025,4 -
19.06.2018 05:00:00 13,9 13,1 4 2 NNO 1025,5 15
19.06.2018 04:00:00 14,0 13,1 11 6 NO 1025,6 -
19.06.2018 03:00:00 14,2 13,2 11 6 N 1025,6 -
19.06.2018 02:00:00 14,3 13,2 13 7 N 1026,0 15
19.06.2018 01:00:00 14,5 13,4 9 5 N 1026,4 -
19.06.2018 00:00:00 15,0 13,4 9 5 NO 1026,8 -
18.06.2018 23:00:00 15,2 13,3 16 9 N 1026,8 20
18.06.2018 22:00:00 15,5 13,6 15 8 N 1026,3 -
18.06.2018 21:00:00 16,5 14,1 16 9 N 1026,1 -
18.06.2018 20:00:00 17,1 14,7 16 9 N 1025,8 20
18.06.2018 19:00:00 18,9 14,6 21 11 NNO 1025,3 -
18.06.2018 18:00:00 19,2 15,3 18 10 NNO 1025,5 -
18.06.2018 17:00:00 19,7 14,7 16 9 N 1025,6 20
18.06.2018 16:00:00 19,1 14,6 15 8 N 1025,7 -
18.06.2018 15:00:00 20,4 14,9 18 10 NNO 1025,4 20
18.06.2018 14:00:00 19,7 14,1 21 11 N 1025,7 -
18.06.2018 13:00:00 18,8 13,6 0 0 N 1026,0 -
18.06.2018 12:00:00 17,7 13,9 5 3 NO 1026,4 -
18.06.2018 11:00:00 17,7 13,3 4 2 ONO 1026,5 15
18.06.2018 10:00:00 14,3 12,1 0 0 N 1027,6 -
18.06.2018 09:00:00 12,2 10,9 0 0 N 1027,8 15
18.06.2018 08:00:00 10,5 9,7 4 2 NW 1027,9 15
18.06.2018 07:00:00 8,6 8,4 0 0 N 1028,2 -
18.06.2018 06:00:00 7,2 6,7 2 1 NNO 1028,4 -
18.06.2018 05:00:00 8,3 7,7 4 2 W 1028,0 15
18.06.2018 04:00:00 8,3 7,7 9 5 NO 1028,1 -
18.06.2018 03:00:00 9,2 8,1 0 0 N 1028,1 -
18.06.2018 02:00:00 10,3 9,5 4 2 NW 1027,9 20
18.06.2018 01:00:00 10,4 9,3 4 2 NO 1028,0 -
18.06.2018 00:00:00 11,8 10,5 2 1 NNO 1027,9 -
17.06.2018 23:00:00 13,0 11,1 11 6 NNO 1027,4 25
17.06.2018 22:00:00 14,9 10,9 15 8 NNO 1026,4 -
17.06.2018 21:00:00 17,1 11,4 18 10 NO 1025,5 -
17.06.2018 20:00:00 18,7 12,2 16 9 NO 1024,5 30
17.06.2018 19:00:00 20,3 12,1 22 12 NO 1023,9 -
17.06.2018 18:00:00 21,5 12,2 22 12 NNO 1023,2 -
17.06.2018 17:00:00 21,8 11,7 21 11 NO 1022,8 30
17.06.2018 16:00:00 21,7 13,3 13 7 ONO 1023,0 -
17.06.2018 15:00:00 20,7 12,8 11 6 NO 1023,4 25
17.06.2018 14:00:00 19,9 12,0 8 4 N 1023,8 25
17.06.2018 13:00:00 18,7 12,5 4 2 ZZW 1024,3 -
17.06.2018 12:00:00 17,2 10,6 9 5 N 1024,8 -
17.06.2018 11:00:00 16,4 11,3 11 6 N 1025,0 20
17.06.2018 10:00:00 15,6 12,4 4 2 ONO 1024,9 -
17.06.2018 09:00:00 14,0 12,2 4 2 O 1024,9 15
17.06.2018 08:00:00 13,5 12,1 2 1 NO 1024,4 15
17.06.2018 07:00:00 13,2 11,9 0 0 N 1023,9 -
17.06.2018 06:00:00 12,9 11,8 0 0 N 1023,7 -
17.06.2018 05:00:00 12,5 11,4 0 0 N 1023,7 15
17.06.2018 04:00:00 12,6 11,8 0 0 N 1023,8 -
17.06.2018 03:00:00 12,5 11,7 5 3 ZW 1023,9 -
17.06.2018 02:00:00 11,6 10,7 4 2 W 1024,4 15
17.06.2018 01:00:00 12,3 11,0 0 0 N 1024,4 -
17.06.2018 00:00:00 12,0 10,9 9 5 NO 1024,2 -
16.06.2018 23:00:00 12,2 10,8 9 5 N 1024,1 15
16.06.2018 22:00:00 14,0 11,3 13 7 NNO 1022,6 -
16.06.2018 21:00:00 16,3 11,1 18 10 N 1021,4 -
16.06.2018 20:00:00 17,8 11,8 24 13 NNO 1020,6 25
16.06.2018 19:00:00 19,2 12,1 26 14 NNO 1019,5 -
16.06.2018 18:00:00 20,3 13,2 22 12 NNO 1018,8 -
16.06.2018 17:00:00 20,4 13,0 16 9 NNO 1018,7 25
16.06.2018 16:00:00 20,5 13,5 21 11 NNO 1019,0 -
16.06.2018 15:00:00 19,7 13,1 15 8 NO 1019,2 20
16.06.2018 14:00:00 18,9 12,5 11 6 NNO 1019,7 20
16.06.2018 13:00:00 17,9 11,6 11 6 NNW 1019,8 -
16.06.2018 12:00:00 16,5 13,2 15 8 NO 1020,2 -
16.06.2018 11:00:00 16,8 13,3 15 8 ONO 1019,7 15
16.06.2018 10:00:00 15,5 13,3 9 5 ONO 1019,8 -
16.06.2018 09:00:00 14,6 13,3 9 5 N 1019,6 8

tt = temperatuur
td = dauwpunt
ff = windsnelheid
dd = windrichting
ppp = luchtdruk
vv = zicht

Weerstations in de omgeving